Regional Weather Roundup
Issued by NWS Cleveland, OH

Home | Current Version | Previous Version | Graphics & Text | Print | Product List | Glossary On
Versions: 1 2 3 4 5 6 7 8 9 10 11 12 13 14 15 16 17 18 19 20 21 22 23 24 25 26 27 28 29 30 31 32 33 34 35 36 37 38 39 40 41 42 43 44 45 46 47 48 49 50
000
ASUS41 KCLE 251410
RWRCLE
OHIO REGIONAL WEATHER ROUNDUP
NATIONAL WEATHER SERVICE WILMINGTON, OH
1000 AM EDT THU AUG 25 2016

NOTE: "FAIR" INDICATES FEW OR NO CLOUDS BELOW 12,000 FEET WITH NO
SIGNIFICANT WEATHER AND/OR OBSTRUCTIONS TO VISIBILITY.

OHZ001>008-015>018-024>027-034-035-043-044-251500-
   NORTHWEST OHIO

CITY           SKY/WX    TMP DP  RH WIND       PRES   REMARKS
DEFIANCE       FAIR      75  71  87 S6        30.01S
FINDLAY        FAIR      76  72  87 SW6       30.02R
TOLEDO EXPRESS FAIR      75  73  93 S6        30.00S
TOLEDO EXEC    FAIR      74  72  93 SW8       30.02R
LIMA           FAIR      76  74  93 SW7       30.04S
$$

OHZ009>014-019>023-028>033-038-089-251500-
   NORTHEAST OHIO

CITY           SKY/WX    TMP DP  RH WIND       PRES   REMARKS
CLE-HOPKINS    CLOUDY    77  70  79 SW6       30.06S
CLE-LAKEFRONT  CLOUDY    78  71  79 SW10G24   30.02S
CUY CO. ARPT   CLOUDY    77  75  94 W9        30.04S
LORAIN-ELYRIA  FAIR      76  71  85 SW7       30.02F
ASHTABULA      CLOUDY    78  75  90 W13       30.04R
AKRON-CANTON   CLOUDY    75  70  84 W5        30.07S
WOOSTER        PTSUNNY   76  71  85 SW6       30.07F
MANSFIELD      FAIR      78  71  79 SW8       30.06F
YOUNGSTOWN     CLOUDY    76  72  87 SW9       30.06F
$$

OHZ042-051>053-060>062-070>072-077>081-251500-
  SOUTHWEST OHIO

CITY           SKY/WX    TMP DP  RH WIND       PRES   REMARKS
CINC-COVINGTON FAIR      81  76  84 W10G16    30.09S
CINC-LUNKEN    PTSUNNY   82  76  81 SW8       30.08S
HAMILTON       CLOUDY    81  74  79 SW8       30.08S
DAYTON         PTSUNNY   79  74  84 SW12      30.07F
WRIGHT-PAT AFB CLOUDY    80  75  87 SW12      30.06S
DAYTON GENERAL CLOUDY    78  73  84 SW6       30.08R
WILMINGTON     CLOUDY    79  75  87 SW9       30.08F
$$

OHZ036-037-039>041-045>050-054>059-063>069-073>076-082>088-251500-
  CENTRAL AND SOUTHEAST OHIO

CITY           SKY/WX    TMP DP  RH WIND       PRES   REMARKS
COLUMBUS       CLOUDY    78  75  90 S6        30.06F
OSU AIRPORT    FAIR      81  76  84 SW9       30.06F
BOLTON FIELD   PTSUNNY   79  75  89 S7        30.06F
RICKENBACK AFB CLOUDY    78  75  91 S7        30.06F
NEWARK         CLOUDY    78  74  87 VRB6      30.05F
MARION         FAIR      78  74  87 S7        30.06R
LANCASTER      FAIR      80  76  87 SW7       30.07F
ZANESVILLE     CLOUDY    77  74  90 S7        30.08F
NEW PHILLY     FAIR      80  70  71 SW8       30.08F
$$




USA.gov is the U.S. government's official web portal to all federal, state and local government web resources and services.